EN

Hourly Weather Bolshoe Kirdyashevo

Today, 22 October, Thursday

Time Temperature Precipitation Wind Pressure Humidity
00:00 -1°C° 0 mm 2 mps 752 mmHg 83%
01:00 -1°C° 0 mm 2 mps 752 mmHg 86%
02:00 -1°C° 0 mm 2 mps 752 mmHg 89%
03:00 0°C° 0 mm 1 mps 752 mmHg 95%
04:00 0°C° 0 mm 1 mps 752 mmHg 95%
05:00 0°C° 0 mm 1 mps 752 mmHg 95%
06:00 0°C° 0 mm 1 mps 752 mmHg 95%
07:00 -1°C° 0 mm 2 mps 752 mmHg 92%
08:00 +1°C° 0 mm 2 mps 752 mmHg 88%
09:00 +1°C° 0 mm 3 mps 752 mmHg 84%
10:00 +2°C° 0 mm 3 mps 752 mmHg 81%
11:00 +4°C° 0 mm 2 mps 752 mmHg 78%
12:00 +5°C° 0 mm 2 mps 752 mmHg 75%
13:00 +5°C° 0 mm 2 mps 752 mmHg 77%
14:00 +6°C° 0 mm 1 mps 751 mmHg 79%
15:00 +6°C° 0 mm 1 mps 751 mmHg 80%
16:00 +4°C° 0 mm 2 mps 751 mmHg 82%
17:00 +4°C° 0 mm 2 mps 750 mmHg 84%
18:00 +3°C° 0 mm 3 mps 750 mmHg 86%
19:00 +3°C° 0 mm 3 mps 750 mmHg 86%
20:00 +3°C° 0 mm 3 mps 750 mmHg 86%
21:00 +4°C° 0 mm 4 mps 749 mmHg 85%
22:00 +3°C° 0 mm 4 mps 749 mmHg 86%
23:00 +3°C° 0 mm 4 mps 748 mmHg 87%

Tomorrow, 23 October, Friday

Time Temperature Precipitation Wind Pressure Humidity
00:00 +3°C° 0 mm 4 mps 747 mmHg 88%
01:00 +3°C° 0.1 mm 4 mps 747 mmHg 88%
02:00 +3°C° 0.1 mm 5 mps 746 mmHg 88%
03:00 +3°C° 0.1 mm 5 mps 745 mmHg 88%
04:00 +3°C° 0 mm 5 mps 745 mmHg 88%
05:00 +3°C° 0 mm 5 mps 744 mmHg 88%
06:00 +3°C° 0 mm 5 mps 743 mmHg 89%
07:00 +5°C° 0.3 mm 5 mps 743 mmHg 89%
08:00 +5°C° 0.3 mm 5 mps 743 mmHg 90%
09:00 +6°C° 0.3 mm 5 mps 742 mmHg 91%
10:00 +7°C° 0.1 mm 5 mps 742 mmHg 91%
11:00 +7°C° 0.1 mm 5 mps 742 mmHg 91%
12:00 +8°C° 0.1 mm 5 mps 742 mmHg 91%
13:00 +9°C° 0 mm 5 mps 742 mmHg 89%
14:00 +9°C° 0 mm 5 mps 743 mmHg 87%
15:00 +10°C° 0 mm 5 mps 743 mmHg 84%
16:00 +10°C° 0 mm 5 mps 743 mmHg 85%
17:00 +10°C° 0 mm 5 mps 743 mmHg 86%
18:00 +9°C° 0 mm 6 mps 743 mmHg 86%
19:00 +9°C° 0 mm 5 mps 743 mmHg 88%
20:00 +8°C° 0 mm 5 mps 743 mmHg 90%
21:00 +8°C° 0 mm 4 mps 742 mmHg 91%
22:00 +8°C° 0 mm 4 mps 742 mmHg 91%
23:00 +9°C° 0 mm 5 mps 741 mmHg 91%

Day after tomorrow, 24 October, Saturday

Time Temperature Precipitation Wind Pressure Humidity
00:00 +9°C° 0 mm 5 mps 741 mmHg 91%
01:00 +9°C° 0.9 mm 6 mps 740 mmHg 91%
02:00 +9°C° 0.9 mm 6 mps 740 mmHg 92%
03:00 +10°C° 0.9 mm 6 mps 740 mmHg 93%
04:00 +10°C° 0.1 mm 6 mps 740 mmHg 93%
05:00 +10°C° 0.1 mm 6 mps 740 mmHg 93%
06:00 +10°C° 0.1 mm 6 mps 740 mmHg 92%
07:00 +10°C° 0 mm 6 mps 740 mmHg 89%
08:00 +10°C° 0 mm 6 mps 741 mmHg 86%
09:00 +10°C° 0 mm 6 mps 741 mmHg 83%
10:00 +10°C° 0 mm 6 mps 742 mmHg 81%
11:00 +10°C° 0 mm 6 mps 742 mmHg 80%
12:00 +10°C° 0 mm 5 mps 742 mmHg 78%
13:00 +10°C° 0 mm 5 mps 743 mmHg 77%
14:00 +10°C° 0 mm 5 mps 743 mmHg 77%
15:00 +10°C° 0 mm 5 mps 743 mmHg 76%
16:00 +10°C° 0 mm 4 mps 744 mmHg 77%
17:00 +10°C° 0 mm 4 mps 744 mmHg 78%
18:00 +10°C° 0 mm 3 mps 744 mmHg 79%
19:00 +10°C° 0 mm 3 mps 744 mmHg 79%
20:00 +9°C° 0 mm 2 mps 745 mmHg 79%
21:00 +9°C° 0 mm 2 mps 745 mmHg 79%
22:00 +9°C° 0 mm 2 mps 745 mmHg 78%
23:00 +9°C° 0 mm 2 mps 745 mmHg 78%

, 25 October, Sunday

Time Temperature Precipitation Wind Pressure Humidity
00:00 +9°C° 0 mm 2 mps 745 mmHg 78%
01:00 +9°C° 0 mm 2 mps 745 mmHg 80%
02:00 +9°C° 0 mm 1 mps 744 mmHg 81%
03:00 +9°C° 0 mm 1 mps 744 mmHg 82%
04:00 +9°C° 0 mm 1 mps 744 mmHg 82%
05:00 +9°C° 0 mm 1 mps 744 mmHg 83%
06:00 +9°C° 0 mm 1 mps 744 mmHg 83%
07:00 +9°C° 0.7 mm 1 mps 743 mmHg 86%
08:00 +9°C° 0.7 mm 1 mps 743 mmHg 90%
09:00 +8°C° 0.7 mm 0 mps 743 mmHg 93%
10:00 +8°C° 0.9 mm 0 mps 742 mmHg 93%
11:00 +9°C° 0.9 mm 1 mps 742 mmHg 94%
12:00 +9°C° 0.9 mm 1 mps 742 mmHg 94%
13:00 +9°C° 0.2 mm 1 mps 742 mmHg 92%
14:00 +9°C° 0.2 mm 1 mps 742 mmHg 90%
15:00 +8°C° 0.2 mm 2 mps 742 mmHg 88%
16:00 +8°C° 0.2 mm 3 mps 743 mmHg 89%
17:00 +7°C° 0.2 mm 4 mps 743 mmHg 89%
18:00 +7°C° 0.2 mm 5 mps 744 mmHg 89%
19:00 +7°C° 0 mm 4 mps 744 mmHg 90%
20:00 +6°C° 0 mm 4 mps 745 mmHg 92%
21:00 +6°C° 0 mm 4 mps 746 mmHg 93%
22:00 +5°C° 0 mm 4 mps 746 mmHg 93%
23:00 +5°C° 0 mm 3 mps 746 mmHg 92%

25 October, Sunday

Time Temperature Precipitation Wind Pressure Humidity
00:00 +9°C° 0 mm 2 mps 745 mmHg 78%
01:00 +9°C° 0 mm 2 mps 745 mmHg 80%
02:00 +9°C° 0 mm 1 mps 744 mmHg 81%
03:00 +9°C° 0 mm 1 mps 744 mmHg 82%
04:00 +9°C° 0 mm 1 mps 744 mmHg 82%
05:00 +9°C° 0 mm 1 mps 744 mmHg 83%
06:00 +9°C° 0 mm 1 mps 744 mmHg 83%
07:00 +9°C° 0.7 mm 1 mps 743 mmHg 86%
08:00 +9°C° 0.7 mm 1 mps 743 mmHg 90%
09:00 +8°C° 0.7 mm 0 mps 743 mmHg 93%
10:00 +8°C° 0.9 mm 0 mps 742 mmHg 93%
11:00 +9°C° 0.9 mm 1 mps 742 mmHg 94%
12:00 +9°C° 0.9 mm 1 mps 742 mmHg 94%
13:00 +9°C° 0.2 mm 1 mps 742 mmHg 92%
14:00 +9°C° 0.2 mm 1 mps 742 mmHg 90%
15:00 +8°C° 0.2 mm 2 mps 742 mmHg 88%
16:00 +8°C° 0.2 mm 3 mps 743 mmHg 89%
17:00 +7°C° 0.2 mm 4 mps 743 mmHg 89%
18:00 +7°C° 0.2 mm 5 mps 744 mmHg 89%
19:00 +7°C° 0 mm 4 mps 744 mmHg 90%
20:00 +6°C° 0 mm 4 mps 745 mmHg 92%
21:00 +6°C° 0 mm 4 mps 746 mmHg 93%
22:00 +5°C° 0 mm 4 mps 746 mmHg 93%
23:00 +5°C° 0 mm 3 mps 746 mmHg 92%

26 October, Monday

Time Temperature Precipitation Wind Pressure Humidity
00:00 +5°C° 0 mm 3 mps 747 mmHg 92%
01:00 +4°C° 0 mm 3 mps 747 mmHg 93%
02:00 +4°C° 0 mm 3 mps 747 mmHg 94%
03:00 +5°C° 0 mm 2 mps 748 mmHg 95%
04:00 +4°C° 0 mm 3 mps 748 mmHg 94%
05:00 +5°C° 0 mm 4 mps 749 mmHg 93%
06:00 +5°C° 0 mm 4 mps 749 mmHg 92%
07:00 +5°C° 0 mm 5 mps 750 mmHg 90%
08:00 +6°C° 0 mm 5 mps 750 mmHg 87%
09:00 +5°C° 0 mm 6 mps 751 mmHg 85%
10:00 +6°C° 0 mm 5 mps 751 mmHg 80%
11:00 +6°C° 0 mm 5 mps 752 mmHg 75%
12:00 +6°C° 0 mm 5 mps 752 mmHg 71%
13:00 +6°C° 0 mm 5 mps 752 mmHg 68%
14:00 +6°C° 0 mm 4 mps 753 mmHg 65%
15:00 +6°C° 0 mm 4 mps 753 mmHg 62%
16:00 +5°C° 0 mm 4 mps 753 mmHg 68%
17:00 +4°C° 0 mm 3 mps 754 mmHg 74%
18:00 +3°C° 0 mm 3 mps 754 mmHg 80%
19:00 +3°C° 0 mm 3 mps 755 mmHg 83%
20:00 +3°C° 0 mm 2 mps 755 mmHg 85%
21:00 +2°C° 0 mm 2 mps 756 mmHg 87%
22:00 +2°C° 0 mm 2 mps 756 mmHg 88%
23:00 +2°C° 0 mm 2 mps 756 mmHg 90%

27 October, Tuesday

Time Temperature Precipitation Wind Pressure Humidity
00:00 +1°C° 0 mm 2 mps 757 mmHg 91%
01:00 +2°C° 0 mm 1 mps 757 mmHg 91%
02:00 +2°C° 0 mm 1 mps 757 mmHg 90%
03:00 +1°C° 0 mm 1 mps 758 mmHg 90%
04:00 +1°C° 0 mm 1 mps 758 mmHg 89%
05:00 +1°C° 0 mm 1 mps 758 mmHg 89%
06:00 +1°C° 0 mm 1 mps 759 mmHg 88%
07:00 +1°C° 0 mm 1 mps 759 mmHg 84%
08:00 +2°C° 0 mm 1 mps 759 mmHg 79%
09:00 +2°C° 0 mm 2 mps 759 mmHg 75%
10:00 +3°C° 0 mm 2 mps 759 mmHg 70%
11:00 +4°C° 0 mm 2 mps 759 mmHg 65%
12:00 +5°C° 0 mm 2 mps 760 mmHg 60%
13:00 +5°C° 0 mm 2 mps 759 mmHg 59%
14:00 +5°C° 0 mm 2 mps 759 mmHg 58%
15:00 +6°C° 0 mm 2 mps 759 mmHg 57%
16:00 +5°C° 0 mm 2 mps 759 mmHg 61%
17:00 +4°C° 0 mm 2 mps 759 mmHg 65%
18:00 +3°C° 0 mm 2 mps 759 mmHg 68%
19:00 +2°C° 0 mm 2 mps 759 mmHg 69%
20:00 +2°C° 0 mm 2 mps 759 mmHg 69%
21:00 +1°C° 0 mm 3 mps 759 mmHg 70%
22:00 +1°C° 0 mm 3 mps 759 mmHg 70%
23:00 0°C° 0 mm 3 mps 759 mmHg 70%
Show more